Weather History for BGDH - May, 2014

Change the Weather History Date:

Friday, May 9, 2014

  Actual Average Record
Temperature  
Mean Temperature 22 °F -  
Max Temperature 32 °F - - ()
Min Temperature 12 °F - - ()
Degree Days  
Heating Degree Days 43    
Moisture  
Dew Point 12 °F    
Average Humidity 47    
Maximum Humidity 60    
Minimum Humidity 35    
Precipitation  
Precipitation 0.01 in - - ()
Sea Level Pressure  
Sea Level Pressure 29.92 in    
Wind  
Wind Speed 10 mph ()    
Max Wind Speed 21 mph    
Max Gust Speed -    
Visibility 15.6 miles    
Events Rain , Snow    
T = Trace of Precipitation, MM = Missing Value Source: Averaged Metar Reports

Daily Weather History Graph

Daily Weather History Graph

Search for Another Location

Airport or City:

Trip Planner

Search our weather history database for the weather conditions in past years. The results will help you decide how hot, cold, wet, or windy it might be!

Date:

Astronomy

Dec. 31, 1969 Rise Set
Actual Time Sun does not set Sun does not set
Civil Twilight Sun does not set Sun does not set
Nautical Twilight Sun does not set Sun does not set
Astronomical Twilight Sun does not set Sun does not set
Moon 12:34 PM WGST (5/9) 1:55 AM WGST (5/9)
Length of Visible Light 24h 00m
Length of Day
24h 00m
Waxing Gibbous, 73% of the Moon is Illuminated
May 9
Waxing Gibbous
May 14
Full
May 21
Last Quarter
May 28
New
Jun 5
First Quarter

Hourly Weather History & Observations

Time (WGST) Temp. Dew Point Humidity Pressure Visibility Wind Dir Wind Speed Gust Speed Precip Events Conditions
12:00 AM 14 °F 6 °F 57% 29.91 in 31 mi WNW 12.7 mph - -  
1:00 AM 12 °F 4 °F 60% 29.90 in 12 mi West 15.0 mph - - Snow Light Snow Showers
2:00 AM 18 °F 8 °F 52% 29.90 in 28 mi WNW 20.7 mph - -   Clear
3:00 AM 16 °F 6 °F 51% 29.91 in 19 mi WNW 11.5 mph - - Snow Snow
4:00 AM 20 °F 9 °F 50% 29.90 in 11 mi WNW 16.1 mph - - Snow Light Snow Showers
5:00 AM 18 °F 10 °F 59% 29.90 in 8 mi WNW 19.6 mph - - Snow Light Snow Showers
6:00 AM 21 °F 10 °F 48% 29.91 in 28 mi West 11.5 mph - - Rain Light Freezing Rain
7:00 AM 23 °F 12 °F 49% 29.92 in 28 mi West 12.7 mph - -   Unknown Precipitation
8:00 AM 23 °F 13 °F 52% 29.91 in 25 mi West 13.8 mph - -   Scattered Clouds
9:00 AM 27 °F 13 °F 42% 29.92 in 18 mi NW 4.6 mph - -   Partly Cloudy
10:00 AM 28 °F 15 °F 44% 29.91 in 19 mi WNW 18.4 mph - -   Clear
11:00 AM 28 °F 14 °F 42% 29.92 in 16 mi NNW 13.8 mph - -   Scattered Clouds
12:00 PM 30 °F 13 °F 35% 29.91 in 18 mi NNW 10.4 mph - -   Unknown Precipitation
1:00 PM 30 °F 14 °F 38% 29.92 in 31 mi NW 5.8 mph - -   Clear
2:00 PM 31 °F 17 °F 42% 29.92 in 19 mi West 2.3 mph - -  
3:00 PM 28 °F 17 °F 52% 29.91 in 22 mi WNW 4.6 mph - -  
4:00 PM 28 °F 15 °F 44% 29.92 in 25 mi SE 1.2 mph - -   Clear
5:00 PM 27 °F 14 °F 46% 29.93 in 28 mi West 3.5 mph - -   Scattered Clouds
6:00 PM 25 °F 13 °F 49% 29.94 in 28 mi South 1.2 mph - -  
7:00 PM 24 °F 12 °F 47% 29.95 in 28 mi NW 5.8 mph - -   Scattered Clouds
8:00 PM 25 °F 12 °F 45% 29.95 in 28 mi WNW 5.8 mph - -   Mostly Cloudy
9:00 PM 23 °F 11 °F 45% 29.96 in 31 mi WNW 11.5 mph - -   Scattered Clouds
10:00 PM 24 °F 10 °F 41% 29.98 in 31 mi NW 9.2 mph - -   Scattered Clouds
11:00 PM 21 °F 9 °F 47% 29.99 in 25 mi WNW 11.5 mph - -